| time (UTC) | temp C | wind direction | speed KPH | gust KPH | rain 1hr cm | rain 24hr cm | rain mn cm | humidity % | barometer mb |
| 20260507123704 | 9 | 83 | 1.6 | 3.2 | 0.00 | 0.00 | 0.00 | 94 | 1018.2 |
| 20260507123201 | 9 | 62 | 1.6 | 3.2 | 0.00 | 0.00 | 0.00 | 94 | 1018.2 |
| 20260507122655 | 10 | 60 | 0.0 | 3.2 | 0.00 | 0.00 | 0.00 | 94 | 1018.2 |
| 20260507122152 | 9 | 56 | 1.6 | 3.2 | 0.00 | 0.00 | 0.00 | 93 | 1018.0 |
| 20260507121647 | 9 | 72 | 3.2 | 3.2 | 0.00 | 0.00 | 0.00 | 93 | 1018.1 |
| 20260507121138 | 9 | 64 | 1.6 | 3.2 | 0.00 | 0.00 | 0.00 | 93 | 1018.1 |
| 20260507120634 | 9 | 75 | 0.0 | 3.2 | 0.00 | 0.00 | 0.00 | 93 | 1018.2 |
| 20260507120131 | 9 | 75 | 1.6 | 3.2 | 0.00 | 0.00 | 0.00 | 92 | 1018.2 |
| 20260507115627 | 10 | 80 | 0.0 | 3.2 | 0.00 | 0.00 | 0.00 | 92 | 1018.2 |
| 20260507115123 | 9 | 74 | 1.6 | 3.2 | 0.00 | 0.00 | 0.00 | 92 | 1018.1 |
| 20260507114619 | 10 | 60 | 1.6 | 3.2 | 0.00 | 0.00 | 0.00 | 92 | 1018.0 |
| 20260507114116 | 10 | 339 | 0.0 | 3.2 | 0.00 | 0.00 | 0.00 | 92 | 1018.2 |
| 20260507113614 | 10 | 44 | 3.2 | 3.2 | 0.00 | 0.00 | 0.00 | 92 | 1018.2 |
| 20260507113111 | 10 | 42 | 1.6 | 3.2 | 0.00 | 0.00 | 0.00 | 92 | 1018.4 |
| 20260507112609 | 10 | 83 | 1.6 | 3.2 | 0.00 | 0.00 | 0.00 | 92 | 1018.4 |
| 20260507112105 | 10 | 64 | 1.6 | 3.2 | 0.00 | 0.00 | 0.00 | 92 | 1018.4 |
| 20260507111602 | 10 | 58 | 1.6 | 3.2 | 0.00 | 0.00 | 0.00 | 92 | 1018.5 |
| 20260507111059 | 10 | 73 | 1.6 | 3.2 | 0.00 | 0.00 | 0.00 | 91 | 1018.7 |
| 20260507110555 | 10 | 51 | 1.6 | 3.2 | 0.00 | 0.00 | 0.00 | 91 | 1018.7 |
| 20260507110052 | 10 | 37 | 3.2 | 3.2 | 0.00 | 0.00 | 0.00 | 91 | 1018.5 |
| 20260507105548 | 10 | 55 | 0.0 | 3.2 | 0.00 | 0.00 | 0.00 | 91 | 1018.6 |
| 20260507105044 | 10 | 74 | 1.6 | 3.2 | 0.00 | 0.00 | 0.00 | 91 | 1018.7 |
| 20260507104542 | 10 | 74 | 0.0 | 1.6 | 0.00 | 0.00 | 0.00 | 91 | 1018.5 |
| 20260507104038 | 10 | 82 | 1.6 | 3.2 | 0.00 | 0.00 | 0.00 | 91 | 1018.7 |
| 20260507103534 | 10 | 73 | 1.6 | 3.2 | 0.00 | 0.00 | 0.00 | 91 | 1018.8 |
| 20260507103031 | 10 | 171 | 0.0 | 3.2 | 0.00 | 0.00 | 0.00 | 91 | 1018.8 |
| 20260507102528 | 10 | 56 | 3.2 | 3.2 | 0.00 | 0.00 | 0.00 | 91 | 1018.7 |
| 20260507102024 | 10 | 59 | 1.6 | 3.2 | 0.00 | 0.00 | 0.00 | 91 | 1018.7 |
| 20260507101520 | 10 | 79 | 1.6 | 1.6 | 0.00 | 0.00 | 0.00 | 91 | 1019.0 |
| 20260507101016 | 10 | 73 | 0.0 | 1.6 | 0.00 | 0.00 | 0.00 | 90 | 1018.7 |
| 20260507100514 | 10 | 66 | 0.0 | 1.6 | 0.00 | 0.00 | 0.00 | 91 | 1019.0 |
| 20260507100012 | 10 | 88 | 1.6 | 3.2 | 0.00 | 0.00 | 0.00 | 90 | 1018.8 |
| 20260507095509 | 10 | 76 | 0.0 | 3.2 | 0.00 | 0.00 | 0.00 | 90 | 1018.8 |
| 20260507095006 | 10 | 63 | 0.0 | 3.2 | 0.00 | 0.00 | 0.00 | 90 | 1018.9 |
| 20260507094502 | 10 | 30 | 0.0 | 3.2 | 0.00 | 0.00 | 0.00 | 89 | 1018.9 |
| 20260507093959 | 10 | 52 | 0.0 | 3.2 | 0.00 | 0.00 | 0.00 | 89 | 1018.8 |
| 20260507093456 | 10 | 75 | 1.6 | 3.2 | 0.00 | 0.00 | 0.00 | 89 | 1018.9 |
| 20260507092954 | 10 | 324 | 0.0 | 3.2 | 0.00 | 0.00 | 0.00 | 89 | 1019.1 |
| 20260507092450 | 10 | 52 | 3.2 | 3.2 | 0.00 | 0.00 | 0.00 | 89 | 1018.9 |
| 20260507091942 | 10 | 28 | 0.0 | 3.2 | 0.00 | 0.00 | 0.00 | 89 | 1019.0 |
| 20260507091438 | 10 | 42 | 3.2 | 3.2 | 0.00 | 0.00 | 0.00 | 89 | 1019.3 |
| 20260507090934 | 10 | 27 | 0.0 | 1.6 | 0.00 | 0.00 | 0.00 | 89 | 1019.3 |
| 20260507090430 | 10 | 80 | 0.0 | 3.2 | 0.00 | 0.00 | 0.00 | 89 | 1019.2 |
| 20260507085927 | 10 | 304 | 0.0 | 3.2 | 0.00 | 0.00 | 0.00 | 88 | 1019.2 |
| 20260507085424 | 10 | 289 | 3.2 | 3.2 | 0.00 | 0.00 | 0.00 | 88 | 1019.4 |
| 20260507084921 | 10 | 76 | 0.0 | 1.6 | 0.00 | 0.00 | 0.00 | 88 | 1019.3 |
| 20260507084418 | 10 | 74 | 1.6 | 3.2 | 0.00 | 0.00 | 0.00 | 88 | 1019.3 |
| 20260507083915 | 10 | 66 | 0.0 | 3.2 | 0.00 | 0.00 | 0.00 | 88 | 1019.3 |
| 20260507083412 | 10 | 48 | 0.0 | 3.2 | 0.00 | 0.00 | 0.00 | 88 | 1019.4 |
| 20260507082908 | 10 | 63 | 1.6 | 3.2 | 0.00 | 0.00 | 0.00 | 88 | 1019.8 |
| 20260507082404 | 10 | 28 | 0.0 | 3.2 | 0.00 | 0.00 | 0.00 | 88 | 1019.4 |
| 20260507081901 | 10 | 73 | 1.6 | 3.2 | 0.00 | 0.00 | 0.00 | 87 | 1019.7 |
| 20260507081357 | 11 | 52 | 0.0 | 1.6 | 0.00 | 0.00 | 0.00 | 87 | 1019.7 |
| 20260507080854 | 11 | 38 | 0.0 | 1.6 | 0.00 | 0.00 | 0.00 | 87 | 1019.5 |
| 20260507080350 | 11 | 89 | 0.0 | 3.2 | 0.00 | 0.00 | 0.00 | 87 | 1019.9 |
| 20260507075846 | 11 | 69 | 0.0 | 1.6 | 0.00 | 0.00 | 0.00 | 87 | 1019.7 |
| 20260507075342 | 11 | 95 | 0.0 | 3.2 | 0.00 | 0.00 | 0.00 | 87 | 1019.5 |
| 20260507074838 | 11 | 47 | 1.6 | 3.2 | 0.00 | 0.00 | 0.00 | 87 | 1019.5 |
| 20260507074336 | 11 | 72 | 1.6 | 3.2 | 0.00 | 0.00 | 0.00 | 86 | 1019.5 |
| 20260507073833 | 11 | 352 | 0.0 | 3.2 | 0.00 | 0.00 | 0.00 | 86 | 1019.5 |
| 20260507073329 | 11 | 321 | 0.0 | 3.2 | 0.00 | 0.00 | 0.00 | 86 | 1019.5 |
| 20260507072827 | 11 | 48 | 3.2 | 3.2 | 0.00 | 0.00 | 0.00 | 85 | 1019.9 |
| 20260507072324 | 11 | 66 | 0.0 | 1.6 | 0.00 | 0.00 | 0.00 | 85 | 1019.8 |
| 20260507071821 | 12 | 55 | 0.0 | 3.2 | 0.00 | 0.00 | 0.00 | 85 | 1019.7 |
| 20260507071318 | 12 | 62 | 0.0 | 3.2 | 0.00 | 0.00 | 0.00 | 85 | 1020.0 |
| 20260507070815 | 11 | 77 | 3.2 | 3.2 | 0.00 | 0.00 | 0.00 | 85 | 1019.9 |
| 20260507070312 | 12 | 51 | 3.2 | 3.2 | 0.00 | 0.00 | 0.00 | 85 | 1019.8 |
| 20260507065809 | 12 | 64 | 1.6 | 3.2 | 0.00 | 0.00 | 0.00 | 85 | 1019.9 |
| 20260507065306 | 12 | 59 | 0.0 | 3.2 | 0.00 | 0.00 | 0.00 | 84 | 1019.9 |
| 20260507064803 | 12 | 50 | 0.0 | 3.2 | 0.00 | 0.00 | 0.00 | 84 | 1020.1 |
| 20260507064301 | 12 | 120 | 0.0 | 1.6 | 0.00 | 0.00 | 0.00 | 85 | 1019.9 |
| 20260507063759 | 12 | 46 | 0.0 | 3.2 | 0.00 | 0.00 | 0.00 | 84 | 1020.0 |
| 20260507063255 | 12 | 44 | 0.0 | 1.6 | 0.00 | 0.00 | 0.00 | 83 | 1019.9 |
| 20260507062752 | 12 | 74 | 0.0 | 1.6 | 0.00 | 0.00 | 0.00 | 83 | 1020.1 |
| 20260507062249 | 12 | 44 | 1.6 | 3.2 | 0.00 | 0.00 | 0.00 | 82 | 1019.8 |
| 20260507061747 | 12 | 66 | 0.0 | 3.2 | 0.00 | 0.00 | 0.00 | 82 | 1019.8 |
| 20260507061245 | 12 | 311 | 0.0 | 1.6 | 0.00 | 0.00 | 0.00 | 82 | 1019.9 |
| 20260507060743 | 12 | 66 | 0.0 | 1.6 | 0.00 | 0.00 | 0.00 | 82 | 1019.5 |
| 20260507060239 | 13 | 72 | 0.0 | 1.6 | 0.00 | 0.00 | 0.00 | 82 | 1019.8 |
| 20260507055736 | 13 | 56 | 0.0 | 1.6 | 0.00 | 0.00 | 0.00 | 81 | 1019.7 |
| 20260507055231 | 13 | 80 | 0.0 | 0.0 | 0.00 | 0.00 | 0.00 | 81 | 1019.9 |
| 20260507054727 | 13 | 76 | 0.0 | 1.6 | 0.00 | 0.00 | 0.00 | 81 | 1019.8 |
| 20260507054224 | 13 | 103 | 0.0 | 3.2 | 0.00 | 0.00 | 0.00 | 81 | 1019.9 |
| 20260507053722 | 13 | 61 | 0.0 | 1.6 | 0.00 | 0.00 | 0.00 | 81 | 1019.8 |
| 20260507053219 | 13 | 63 | 0.0 | 1.6 | 0.00 | 0.00 | 0.00 | 80 | 1020.0 |
| 20260507052718 | 13 | 89 | 0.0 | 1.6 | 0.00 | 0.00 | 0.00 | 79 | 1019.9 |
| 20260507052214 | 13 | 76 | 0.0 | 0.0 | 0.00 | 0.00 | 0.00 | 79 | 1020.0 |
| 20260507051712 | 13 | 52 | 0.0 | 1.6 | 0.00 | 0.00 | 0.00 | 79 | 1020.0 |
| 20260507051209 | 14 | 58 | 1.6 | 3.2 | 0.00 | 0.00 | 0.00 | 79 | 1019.9 |
| 20260507050705 | 14 | 55 | 0.0 | 1.6 | 0.00 | 0.00 | 0.00 | 78 | 1020.1 |
| 20260507050202 | 15 | 60 | 0.0 | 3.2 | 0.00 | 0.00 | 0.00 | 78 | 1020.0 |
| 20260507045659 | 15 | 102 | 0.0 | 1.6 | 0.00 | 0.00 | 0.00 | 77 | 1019.8 |
| 20260507045156 | 15 | 63 | 0.0 | 3.2 | 0.00 | 0.00 | 0.00 | 76 | 1019.9 |
| 20260507044652 | 15 | 89 | 1.6 | 3.2 | 0.00 | 0.00 | 0.00 | 76 | 1019.7 |
| 20260507044149 | 15 | 58 | 1.6 | 3.2 | 0.00 | 0.00 | 0.00 | 75 | 1020.0 |
| 20260507043645 | 15 | 14 | 3.2 | 3.2 | 0.00 | 0.00 | 0.00 | 75 | 1019.9 |
| 20260507043142 | 15 | 55 | 1.6 | 3.2 | 0.00 | 0.00 | 0.00 | 74 | 1019.5 |
| 20260507042639 | 15 | 73 | 0.0 | 3.2 | 0.00 | 0.00 | 0.00 | 74 | 1019.5 |
| 20260507042134 | 15 | 57 | 1.6 | 3.2 | 0.00 | 0.00 | 0.00 | 73 | 1019.8 |
| 20260507041631 | 15 | 41 | 1.6 | 3.2 | 0.00 | 0.00 | 0.00 | 73 | 1019.7 |
| 20260507041127 | 15 | 65 | 1.6 | 3.2 | 0.00 | 0.00 | 0.00 | 72 | 1019.8 |
| 20260507040625 | 15 | 70 | 0.0 | 1.6 | 0.00 | 0.00 | 0.00 | 72 | 1019.4 |
| 20260507040121 | 16 | 46 | 3.2 | 4.8 | 0.00 | 0.00 | 0.00 | 71 | 1019.5 |
| 20260507035617 | 16 | 52 | 0.0 | 3.2 | 0.00 | 0.00 | 0.00 | 70 | 1019.5 |
| 20260507035113 | 16 | 18 | 3.2 | 3.2 | 0.00 | 0.00 | 0.00 | 70 | 1019.5 |
| 20260507034610 | 16 | 30 | 0.0 | 3.2 | 0.00 | 0.00 | 0.00 | 69 | 1019.1 |
| 20260507034108 | 16 | 57 | 0.0 | 3.2 | 0.00 | 0.00 | 0.00 | 69 | 1019.2 |
| 20260507033606 | 16 | 69 | 0.0 | 3.2 | 0.00 | 0.00 | 0.00 | 68 | 1019.1 |
| 20260507033103 | 16 | 35 | 1.6 | 3.2 | 0.00 | 0.00 | 0.00 | 68 | 1019.1 |
| 20260507032600 | 16 | 96 | 1.6 | 4.8 | 0.00 | 0.00 | 0.00 | 68 | 1019.0 |
| 20260507032056 | 16 | 110 | 0.0 | 3.2 | 0.00 | 0.00 | 0.00 | 67 | 1019.0 |
| 20260507031552 | 16 | 85 | 3.2 | 3.2 | 0.00 | 0.00 | 0.00 | 67 | 1019.1 |
| 20260507031050 | 17 | 89 | 0.0 | 4.8 | 0.00 | 0.00 | 0.00 | 67 | 1018.9 |
| 20260507030546 | 17 | 19 | 3.2 | 4.8 | 0.00 | 0.00 | 0.00 | 66 | 1018.7 |
| 20260507030044 | 17 | 55 | 0.0 | 3.2 | 0.00 | 0.00 | 0.00 | 66 | 1018.8 |
| 20260507025541 | 17 | 102 | 1.6 | 8.0 | 0.00 | 0.00 | 0.00 | 66 | 1018.7 |
| 20260507025038 | 17 | 58 | 3.2 | 8.0 | 0.00 | 0.00 | 0.00 | 66 | 1018.7 |
| 20260507024536 | 17 | 88 | 1.6 | 8.0 | 0.00 | 0.00 | 0.00 | 66 | 1018.6 |
| 20260507024033 | 17 | 61 | 3.2 | 6.4 | 0.00 | 0.00 | 0.00 | 65 | 1018.7 |
| 20260507023528 | 18 | 41 | 4.8 | 4.8 | 0.00 | 0.00 | 0.00 | 66 | 1018.4 |
| 20260507023026 | 18 | 101 | 3.2 | 6.4 | 0.00 | 0.00 | 0.00 | 65 | 1018.4 |
| 20260507022523 | 18 | 23 | 1.6 | 9.7 | 0.00 | 0.00 | 0.00 | 65 | 1018.4 |
| 20260507022018 | 18 | 34 | 3.2 | 6.4 | 0.00 | 0.00 | 0.00 | 64 | 1018.4 |
| 20260507021514 | 18 | 108 | 4.8 | 11.3 | 0.00 | 0.00 | 0.00 | 64 | 1018.3 |
| 20260507021011 | 19 | 111 | 1.6 | 4.8 | 0.00 | 0.00 | 0.00 | 64 | 1018.3 |
| 20260507020508 | 19 | 4 | 1.6 | 6.4 | 0.00 | 0.00 | 0.00 | 64 | 1018.4 |
| 20260507020005 | 19 | 60 | 3.2 | 6.4 | 0.00 | 0.00 | 0.00 | 63 | 1018.2 |
| 20260507015504 | 19 | 359 | 0.0 | 4.8 | 0.00 | 0.00 | 0.00 | 63 | 1018.1 |
| 20260507015001 | 20 | 315 | 3.2 | 6.4 | 0.00 | 0.00 | 0.00 | 63 | 1018.1 |
| 20260507014457 | 20 | 116 | 3.2 | 8.0 | 0.00 | 0.00 | 0.00 | 62 | 1017.9 |
| 20260507013953 | 20 | 59 | 3.2 | 11.3 | 0.00 | 0.00 | 0.00 | 62 | 1018.0 |
| 20260507013449 | 20 | 331 | 6.4 | 9.7 | 0.00 | 0.00 | 0.00 | 61 | 1017.9 |
| 20260507012947 | 21 | 57 | 1.6 | 8.0 | 0.00 | 0.00 | 0.00 | 59 | 1018.0 |
| 20260507012444 | 21 | 78 | 3.2 | 12.9 | 0.00 | 0.00 | 0.00 | 60 | 1017.7 |
| 20260507011940 | 21 | 65 | 4.8 | 9.7 | 0.00 | 0.00 | 0.00 | 60 | 1017.9 |
| 20260507011437 | 21 | 92 | 9.7 | 11.3 | 0.00 | 0.00 | 0.00 | 58 | 1017.9 |
| 20260507010932 | 21 | 6 | 3.2 | 17.7 | 0.00 | 0.00 | 0.00 | 58 | 1017.9 |
| 20260507010427 | 21 | 115 | 6.4 | 9.7 | 0.00 | 0.00 | 0.00 | 58 | 1017.8 |
| 20260507005924 | 21 | 34 | 8.0 | 9.7 | 0.00 | 0.00 | 0.00 | 58 | 1017.6 |
| 20260507005422 | 21 | 86 | 6.4 | 8.0 | 0.00 | 0.00 | 0.00 | 57 | 1017.7 |
| 20260507004918 | 22 | 9 | 6.4 | 9.7 | 0.00 | 0.00 | 0.00 | 57 | 1017.5 |
| 20260507004415 | 22 | 13 | 6.4 | 11.3 | 0.00 | 0.00 | 0.00 | 56 | 1017.4 |
| 20260507003912 | 23 | 6 | 6.4 | 14.5 | 0.00 | 0.00 | 0.00 | 54 | 1017.6 |
| 20260507003407 | 22 | 93 | 0.0 | 9.7 | 0.00 | 0.00 | 0.00 | 55 | 1017.5 |
| 20260507002903 | 22 | 95 | 3.2 | 11.3 | 0.00 | 0.00 | 0.00 | 55 | 1017.5 |
| 20260507002359 | 22 | 57 | 4.8 | 14.5 | 0.00 | 0.00 | 0.00 | 55 | 1017.4 |
| 20260507001856 | 22 | 74 | 8.0 | 14.5 | 0.00 | 0.00 | 0.00 | 55 | 1017.5 |
| 20260507001353 | 23 | 11 | 3.2 | 11.3 | 0.00 | 0.00 | 0.00 | 54 | 1017.4 |
| 20260507000850 | 23 | 101 | 11.3 | 12.9 | 0.00 | 0.00 | 0.00 | 54 | 1017.3 |
| 20260507000345 | 23 | 124 | 1.6 | 8.0 | 0.00 | 0.00 | 0.00 | 54 | 1017.2 |
| 20260506235842 | 23 | 107 | 6.4 | 14.5 | 0.00 | 0.00 | 0.00 | 54 | 1017.4 |
| 20260506235339 | 23 | 38 | 6.4 | 9.7 | 0.00 | 0.00 | 0.00 | 54 | 1017.1 |
| 20260506234835 | 23 | 17 | 9.7 | 14.5 | 0.00 | 0.00 | 0.00 | 54 | 1017.4 |
| 20260506234332 | 23 | 29 | 4.8 | 11.3 | 0.00 | 0.00 | 0.00 | 55 | 1017.2 |
| 20260506233829 | 23 | 82 | 3.2 | 8.0 | 0.00 | 0.00 | 0.00 | 53 | 1017.1 |
| 20260506233320 | 23 | 91 | 1.6 | 11.3 | 0.00 | 0.00 | 0.00 | 53 | 1017.2 |
| 20260506232817 | 23 | 85 | 1.6 | 11.3 | 0.00 | 0.00 | 0.00 | 53 | 1017.1 |
| 20260506232312 | 23 | 122 | 4.8 | 8.0 | 0.00 | 0.00 | 0.00 | 53 | 1017.2 |
| 20260506231809 | 23 | 110 | 3.2 | 12.9 | 0.00 | 0.00 | 0.00 | 52 | 1017.2 |
| 20260506231307 | 24 | 339 | 3.2 | 9.7 | 0.00 | 0.00 | 0.00 | 51 | 1017.1 |
| 20260506230805 | 24 | 112 | 11.3 | 12.9 | 0.00 | 0.00 | 0.00 | 51 | 1017.2 |
| 20260506230301 | 23 | 350 | 4.8 | 9.7 | 0.00 | 0.00 | 0.00 | 51 | 1017.2 |
| 20260506225757 | 24 | 32 | 4.8 | 11.3 | 0.00 | 0.00 | 0.00 | 51 | 1017.2 |
| 20260506225254 | 25 | 82 | 6.4 | 8.0 | 0.00 | 0.00 | 0.00 | 49 | 1017.3 |
| 20260506224745 | 25 | 89 | 0.0 | 6.4 | 0.00 | 0.00 | 0.00 | 49 | 1017.2 |
| 20260506224243 | 24 | 68 | 8.0 | 12.9 | 0.00 | 0.00 | 0.00 | 50 | 1017.2 |
| 20260506223738 | 24 | 35 | 3.2 | 11.3 | 0.00 | 0.00 | 0.00 | 50 | 1017.3 |
| 20260506223234 | 24 | 21 | 4.8 | 12.9 | 0.00 | 0.00 | 0.00 | 49 | 1017.4 |
| 20260506222731 | 25 | 333 | 3.2 | 9.7 | 0.00 | 0.00 | 0.00 | 48 | 1017.4 |
| 20260506222227 | 24 | 11 | 3.2 | 9.7 | 0.00 | 0.00 | 0.00 | 49 | 1017.4 |
| 20260506221725 | 25 | 102 | 9.7 | 9.7 | 0.00 | 0.00 | 0.00 | 48 | 1017.6 |
| 20260506221223 | 25 | 130 | 6.4 | 9.7 | 0.00 | 0.00 | 0.00 | 47 | 1017.6 |
| 20260506220720 | 25 | 108 | 6.4 | 11.3 | 0.00 | 0.00 | 0.00 | 48 | 1017.6 |
| 20260506220214 | 25 | 336 | 0.0 | 14.5 | 0.00 | 0.00 | 0.00 | 47 | 1017.7 |
| 20260506215711 | 25 | 5 | 12.9 | 12.9 | 0.00 | 0.00 | 0.00 | 47 | 1017.6 |
| 20260506215207 | 25 | 143 | 4.8 | 16.1 | 0.00 | 0.00 | 0.00 | 47 | 1017.7 |
| 20260506214704 | 25 | 13 | 3.2 | 6.4 | 0.00 | 0.00 | 0.00 | 46 | 1017.7 |
| 20260506214201 | 25 | 53 | 3.2 | 12.9 | 0.00 | 0.00 | 0.00 | 46 | 1017.8 |
| 20260506213700 | 26 | 259 | 1.6 | 9.7 | 0.00 | 0.00 | 0.00 | 45 | 1017.8 |
| 20260506213156 | 26 | 1 | 6.4 | 8.0 | 0.00 | 0.00 | 0.00 | 43 | 1018.0 |
| 20260506212653 | 26 | 105 | 0.0 | 4.8 | 0.00 | 0.00 | 0.00 | 37 | 1018.1 |
| 20260506212148 | 25 | 170 | 3.2 | 4.8 | 0.00 | 0.00 | 0.00 | 37 | 1018.2 |
| 20260506211644 | 25 | 281 | 0.0 | 4.8 | 0.00 | 0.00 | 0.00 | 38 | 1018.0 |
| 20260506211141 | 25 | 116 | 1.6 | 8.0 | 0.00 | 0.00 | 0.00 | 38 | 1018.1 |
| 20260506210638 | 25 | 160 | 3.2 | 4.8 | 0.00 | 0.00 | 0.00 | 39 | 1018.1 |
| 20260506210134 | 25 | 123 | 4.8 | 6.4 | 0.00 | 0.00 | 0.00 | 39 | 1018.0 |
| 20260506205632 | 25 | 352 | 1.6 | 3.2 | 0.00 | 0.00 | 0.00 | 39 | 1018.4 |
| 20260506205126 | 25 | 138 | 4.8 | 11.3 | 0.00 | 0.00 | 0.00 | 40 | 1018.4 |
| 20260506204625 | 24 | 288 | 3.2 | 4.8 | 0.00 | 0.00 | 0.00 | 41 | 1018.4 |
| 20260506204121 | 24 | 22 | 0.0 | 11.3 | 0.00 | 0.00 | 0.00 | 41 | 1018.5 |
| 20260506203620 | 24 | 189 | 0.0 | 4.8 | 0.00 | 0.00 | 0.00 | 42 | 1018.6 |
| 20260506203116 | 23 | 244 | 1.6 | 3.2 | 0.00 | 0.00 | 0.00 | 43 | 1018.6 |
| 20260506202614 | 23 | 169 | 4.8 | 11.3 | 0.00 | 0.00 | 0.00 | 44 | 1018.7 |
| 20260506202110 | 22 | 154 | 0.0 | 3.2 | 0.00 | 0.00 | 0.00 | 42 | 1018.7 |
| 20260506201607 | 23 | 139 | 1.6 | 4.8 | 0.00 | 0.00 | 0.00 | 44 | 1018.8 |
| 20260506201104 | 22 | 182 | 1.6 | 8.0 | 0.00 | 0.00 | 0.00 | 44 | 1018.9 |
| 20260506200600 | 22 | 112 | 3.2 | 12.9 | 0.00 | 0.00 | 0.00 | 43 | 1018.8 |
| 20260506200057 | 22 | 192 | 1.6 | 8.0 | 0.00 | 0.00 | 0.00 | 44 | 1018.9 |
| 20260506195553 | 22 | 209 | 6.4 | 9.7 | 0.00 | 0.00 | 0.00 | 43 | 1019.0 |
| 20260506195050 | 22 | 68 | 0.0 | 3.2 | 0.00 | 0.00 | 0.00 | 44 | 1019.1 |
| 20260506194548 | 22 | 102 | 4.8 | 6.4 | 0.00 | 0.00 | 0.00 | 43 | 1019.3 |
| 20260506194044 | 22 | 121 | 3.2 | 3.2 | 0.00 | 0.00 | 0.00 | 44 | 1019.3 |
| 20260506193541 | 21 | 95 | 6.4 | 6.4 | 0.00 | 0.00 | 0.00 | 45 | 1019.4 |
| 20260506193039 | 22 | 107 | 3.2 | 6.4 | 0.00 | 0.00 | 0.00 | 44 | 1019.4 |
| 20260506192535 | 21 | 159 | 0.0 | 3.2 | 0.00 | 0.00 | 0.00 | 45 | 1019.7 |
| 20260506192031 | 21 | 114 | 1.6 | 6.4 | 0.00 | 0.00 | 0.00 | 45 | 1019.7 |
| 20260506191528 | 21 | 349 | 3.2 | 8.0 | 0.00 | 0.00 | 0.00 | 45 | 1019.9 |
| 20260506191024 | 21 | 76 | 1.6 | 11.3 | 0.00 | 0.00 | 0.00 | 46 | 1019.7 |
| 20260506190521 | 20 | 89 | 0.0 | 9.7 | 0.00 | 0.00 | 0.00 | 48 | 1020.0 |
| 20260506190019 | 21 | 187 | 3.2 | 6.4 | 0.00 | 0.00 | 0.00 | 47 | 1019.9 |
| 20260506185515 | 21 | 121 | 0.0 | 4.8 | 0.00 | 0.00 | 0.00 | 47 | 1020.0 |
| 20260506185012 | 20 | 224 | 0.0 | 1.6 | 0.00 | 0.00 | 0.00 | 48 | 1020.0 |
| 20260506184509 | 20 | 89 | 0.0 | 3.2 | 0.00 | 0.00 | 0.00 | 49 | 1020.2 |
| 20260506184007 | 20 | 205 | 1.6 | 6.4 | 0.00 | 0.00 | 0.00 | 50 | 1020.2 |
| 20260506183502 | 19 | 176 | 1.6 | 6.4 | 0.00 | 0.00 | 0.00 | 51 | 1020.1 |
| 20260506182959 | 20 | 123 | 8.0 | 8.0 | 0.00 | 0.00 | 0.00 | 50 | 1020.2 |
| 20260506182456 | 20 | 78 | 4.8 | 11.3 | 0.00 | 0.00 | 0.00 | 51 | 1020.3 |
| 20260506181953 | 18 | 282 | 3.2 | 4.8 | 0.00 | 0.00 | 0.00 | 53 | 1020.4 |
| 20260506181452 | 19 | 137 | 3.2 | 8.0 | 0.00 | 0.00 | 0.00 | 52 | 1020.5 |
| 20260506180948 | 19 | 132 | 4.8 | 4.8 | 0.00 | 0.00 | 0.00 | 52 | 1020.4 |
| 20260506180444 | 18 | 196 | 6.4 | 6.4 | 0.00 | 0.00 | 0.00 | 53 | 1020.3 |
| 20260506175941 | 19 | 126 | 0.0 | 1.6 | 0.00 | 0.00 | 0.00 | 52 | 1020.6 |
| 20260506175438 | 18 | 21 | 3.2 | 8.0 | 0.00 | 0.00 | 0.00 | 54 | 1020.7 |
| 20260506174934 | 18 | 133 | 4.8 | 14.5 | 0.00 | 0.00 | 0.00 | 55 | 1020.6 |
| 20260506174432 | 18 | 47 | 1.6 | 1.6 | 0.00 | 0.00 | 0.00 | 54 | 1020.6 |
| 20260506173923 | 17 | 147 | 3.2 | 6.4 | 0.00 | 0.00 | 0.00 | 57 | 1020.5 |
| 20260506173420 | 17 | 112 | 3.2 | 9.7 | 0.00 | 0.00 | 0.00 | 56 | 1020.6 |
| 20260506172918 | 18 | 117 | 4.8 | 6.4 | 0.00 | 0.00 | 0.00 | 56 | 1020.7 |
| 20260506172414 | 17 | 180 | 3.2 | 6.4 | 0.00 | 0.00 | 0.00 | 57 | 1020.9 |
| 20260506171911 | 17 | 89 | 0.0 | 6.4 | 0.00 | 0.00 | 0.00 | 57 | 1020.8 |
| 20260506171408 | 18 | 140 | 0.0 | 3.2 | 0.00 | 0.00 | 0.00 | 55 | 1020.7 |
| 20260506170906 | 17 | 14 | 0.0 | 3.2 | 0.00 | 0.00 | 0.00 | 57 | 1020.7 |
| 20260506170401 | 16 | 164 | 0.0 | 8.0 | 0.00 | 0.00 | 0.00 | 59 | 1020.9 |
| 20260506165855 | 16 | 108 | 3.2 | 6.4 | 0.00 | 0.00 | 0.00 | 63 | 1020.7 |
| 20260506165353 | 17 | 94 | 1.6 | 6.4 | 0.00 | 0.00 | 0.00 | 62 | 1020.7 |
| 20260506164849 | 17 | 38 | 0.0 | 3.2 | 0.00 | 0.00 | 0.00 | 62 | 1020.7 |
| 20260506164345 | 17 | 51 | 1.6 | 3.2 | 0.00 | 0.00 | 0.00 | 61 | 1020.8 |
| 20260506163843 | 16 | 9 | 1.6 | 3.2 | 0.00 | 0.00 | 0.00 | 63 | 1020.7 |
| 20260506163337 | 16 | 118 | 3.2 | 4.8 | 0.00 | 0.00 | 0.00 | 65 | 1020.9 |
| 20260506162833 | 16 | 325 | 0.0 | 4.8 | 0.00 | 0.00 | 0.00 | 67 | 1020.8 |
| 20260506162332 | 16 | 117 | 3.2 | 4.8 | 0.00 | 0.00 | 0.00 | 68 | 1020.7 |
| 20260506161829 | 16 | 53 | 1.6 | 3.2 | 0.00 | 0.00 | 0.00 | 67 | 1020.7 |
| 20260506161326 | 16 | 42 | 3.2 | 3.2 | 0.00 | 0.00 | 0.00 | 68 | 1020.8 |
| 20260506160823 | 15 | 145 | 0.0 | 0.0 | 0.00 | 0.00 | 0.00 | 70 | 1020.7 |
| 20260506160319 | 14 | 116 | 3.2 | 6.4 | 0.00 | 0.00 | 0.00 | 75 | 1020.9 |
| 20260506155818 | 14 | 103 | 6.4 | 6.4 | 0.00 | 0.00 | 0.00 | 75 | 1020.8 |
| 20260506155315 | 13 | 136 | 0.0 | 4.8 | 0.00 | 0.00 | 0.00 | 76 | 1020.7 |
| 20260506153428 | 13 | 74 | 0.0 | 4.8 | 0.00 | 0.00 | 0.00 | 78 | 1020.7 |
| 20260506152925 | 13 | 98 | 3.2 | 3.2 | 0.00 | 0.00 | 0.00 | 79 | 1020.8 |
| 20260506152422 | 13 | 123 | 0.0 | 1.6 | 0.00 | 0.00 | 0.00 | 78 | 1020.7 |
| 20260506151921 | 12 | 109 | 3.2 | 3.2 | 0.00 | 0.00 | 0.00 | 81 | 1020.9 |
| 20260506151417 | 12 | 97 | 0.0 | 3.2 | 0.00 | 0.00 | 0.00 | 82 | 1020.7 |
| 20260506150915 | 12 | 109 | 1.6 | 3.2 | 0.00 | 0.00 | 0.00 | 83 | 1020.8 |
| 20260506150410 | 11 | 94 | 3.2 | 3.2 | 0.00 | 0.00 | 0.00 | 83 | 1020.8 |
| 20260506145908 | 12 | 117 | 3.2 | 3.2 | 0.00 | 0.00 | 0.00 | 82 | 1020.7 |
| 20260506145404 | 11 | 99 | 0.0 | 3.2 | 0.00 | 0.00 | 0.00 | 83 | 1020.9 |
| 20260506144902 | 11 | 89 | 0.0 | 3.2 | 0.00 | 0.00 | 0.00 | 85 | 1020.7 |
| 20260506144357 | 11 | 115 | 1.6 | 3.2 | 0.00 | 0.00 | 0.00 | 87 | 1020.9 |
| 20260506143856 | 10 | 102 | 3.2 | 3.2 | 0.00 | 0.00 | 0.00 | 90 | 1020.6 |
| 20260506143353 | 9 | 84 | 3.2 | 3.2 | 0.00 | 0.00 | 0.00 | 92 | 1020.7 |
| 20260506142851 | 8 | 50 | 1.6 | 3.2 | 0.00 | 0.00 | 0.00 | 93 | 1020.6 |
| 20260506142349 | 8 | 112 | 3.2 | 3.2 | 0.00 | 0.00 | 0.00 | 93 | 1020.9 |
| 20260506141847 | 8 | 75 | 3.2 | 3.2 | 0.00 | 0.00 | 0.00 | 94 | 1020.5 |
| 20260506141345 | 8 | 47 | 1.6 | 3.2 | 0.00 | 0.00 | 0.00 | 94 | 1020.7 |
| 20260506140843 | 7 | 65 | 3.2 | 3.2 | 0.00 | 0.00 | 0.00 | 95 | 1020.6 |
| 20260506140339 | 7 | 65 | 1.6 | 3.2 | 0.00 | 0.00 | 0.00 | 95 | 1020.7 |
| 20260506135836 | 7 | 69 | 1.6 | 3.2 | 0.00 | 0.00 | 0.00 | 96 | 1020.6 |
| 20260506135333 | 7 | 63 | 0.0 | 3.2 | 0.00 | 0.00 | 0.00 | 96 | 1020.5 |
| 20260506134829 | 7 | 97 | 1.6 | 3.2 | 0.00 | 0.00 | 0.00 | 97 | 1020.3 |
| 20260506134326 | 7 | 62 | 1.6 | 3.2 | 0.00 | 0.00 | 0.00 | 97 | 1020.3 |
| 20260506133823 | 7 | 87 | 1.6 | 3.2 | 0.00 | 0.00 | 0.00 | 97 | 1020.6 |
| 20260506133319 | 6 | 78 | 1.6 | 3.2 | 0.00 | 0.00 | 0.00 | 97 | 1020.4 |
| 20260506132816 | 6 | 74 | 1.6 | 4.8 | 0.00 | 0.00 | 0.00 | 97 | 1020.2 |
| 20260506132313 | 6 | 70 | 3.2 | 3.2 | 0.00 | 0.00 | 0.00 | 97 | 1020.3 |
| 20260506131812 | 6 | 65 | 3.2 | 3.2 | 0.00 | 0.00 | 0.00 | 96 | 1020.2 |
| 20260506131307 | 6 | 85 | 1.6 | 3.2 | 0.00 | 0.00 | 0.00 | 96 | 1020.3 |
| 20260506130804 | 6 | 79 | 1.6 | 3.2 | 0.00 | 0.00 | 0.00 | 96 | 1020.0 |
| 20260506130301 | 6 | 53 | 3.2 | 3.2 | 0.00 | 0.00 | 0.00 | 96 | 1020.2 |
| 20260506125759 | 6 | 73 | 1.6 | 3.2 | 0.00 | 0.00 | 0.00 | 96 | 1020.1 |
| 20260506125257 | 6 | 74 | 1.6 | 3.2 | 0.00 | 0.00 | 0.00 | 96 | 1020.0 |
| 20260506124755 | 6 | 59 | 3.2 | 3.2 | 0.00 | 0.00 | 0.00 | 96 | 1020.0 |
| 20260506124252 | 6 | 89 | 1.6 | 3.2 | 0.00 | 0.00 | 0.00 | 96 | 1020.1 |